User: anonymous   Login
Location: Borgo
(42.3939°N, 9.2791°E)
Time: 00:33:48
(UTC+00:00)
Language:

Cosmos 2112 Rocket - Orbit

View from above orbital plane
View from above orbital plane
View from above satellite
View from above satellite

Ground track
Ground track

The orbit data is extracted from the following two-line orbital elements,

1 21015U 90111B   21104.45702953 -.00000022  00000-0  14369-5 0  9997
2 21015  74.0491  94.1785 0021406  10.2259 106.3651 14.36032988686682
Epoch (UTC): 14 April 2021 10:58:07
Eccentricity: 0.0021406
inclination: 74.0491°
perigee height: 756 km
apogee height: 787 km
right ascension of ascending node: 94.1785°
argument of perigee: 10.2259°
revolutions per day: 14.36032988
mean anomaly at epoch: 106.3651°
orbit number at epoch: 68668

The dashed part of the orbit path shows where the satellite is in the earth's shadow,  

DLR